| time (UTC) | temp F | wind direction | speed MPH | gust MPH | rain 1hr in | rain 24hr in | rain mn in | humidity % | barometer mb |
| 20260509074614 | 40 | 138 | 0.0 | 3.0 | 0.00 | 0.00 | 0.00 | 69 | 1004.1 |
| 20260509073112 | 40 | 213 | 0.0 | 0.0 | 0.00 | 0.00 | 0.00 | 69 | 1004.5 |
| 20260509071604 | 41 | 213 | 0.0 | 0.0 | 0.00 | 0.00 | 0.00 | 67 | 1004.7 |
| 20260509070106 | 41 | 213 | 0.0 | 2.0 | 0.00 | 0.00 | 0.00 | 67 | 1004.7 |
| 20260509064605 | 42 | 213 | 1.0 | 3.0 | 0.00 | 0.00 | 0.00 | 67 | 1005.0 |
| 20260509063103 | 43 | 213 | 0.0 | 3.0 | 0.00 | 0.00 | 0.00 | 64 | 1005.0 |
| 20260509061558 | 44 | 163 | 1.0 | 5.0 | 0.00 | 0.00 | 0.00 | 60 | 1005.0 |
| 20260509060118 | 45 | 160 | 4.0 | 10.0 | 0.00 | 0.00 | 0.00 | 60 | 1005.1 |
| 20260509054558 | 45 | 241 | 1.0 | 7.0 | 0.00 | 0.00 | 0.00 | 61 | 1005.3 |
| 20260509053118 | 45 | 165 | 3.0 | 8.0 | 0.00 | 0.00 | 0.00 | 58 | 1005.4 |
| 20260509051626 | 46 | 176 | 3.0 | 10.0 | 0.00 | 0.00 | 0.00 | 58 | 1005.4 |
| 20260509050045 | 46 | 134 | 4.0 | 12.0 | 0.00 | 0.00 | 0.00 | 59 | 1005.5 |
| 20260509044552 | 46 | 208 | 3.0 | 9.0 | 0.00 | 0.00 | 0.00 | 59 | 1005.5 |
| 20260509043101 | 46 | 159 | 1.0 | 7.0 | 0.00 | 0.00 | 0.00 | 59 | 1005.7 |
| 20260509041606 | 46 | 140 | 3.0 | 7.0 | 0.00 | 0.00 | 0.00 | 59 | 1005.6 |
| 20260509040118 | 46 | 170 | 2.0 | 7.0 | 0.00 | 0.00 | 0.00 | 60 | 1005.4 |
| 20260509034616 | 47 | 157 | 1.0 | 5.0 | 0.00 | 0.00 | 0.00 | 59 | 1005.4 |
| 20260509033135 | 48 | 146 | 1.0 | 8.0 | 0.00 | 0.00 | 0.00 | 57 | 1005.0 |
| 20260509031601 | 49 | 144 | 4.0 | 9.0 | 0.00 | 0.00 | 0.00 | 54 | 1004.9 |
| 20260509030100 | 49 | 202 | 2.0 | 4.0 | 0.00 | 0.00 | 0.00 | 52 | 1004.7 |
| 20260509024606 | 50 | 148 | 2.0 | 7.0 | 0.00 | 0.00 | 0.00 | 53 | 1004.3 |
| 20260509023041 | 50 | 175 | 2.0 | 8.0 | 0.00 | 0.00 | 0.00 | 49 | 1004.0 |
| 20260509021613 | 50 | 138 | 6.0 | 14.0 | 0.00 | 0.00 | 0.00 | 50 | 1004.0 |
| 20260509020120 | 50 | 128 | 9.0 | 15.0 | 0.00 | 0.00 | 0.00 | 52 | 1003.7 |
| 20260509014607 | 50 | 129 | 9.0 | 20.0 | 0.00 | 0.00 | 0.00 | 53 | 1003.7 |
| 20260509013123 | 50 | 106 | 7.0 | 12.0 | 0.00 | 0.00 | 0.00 | 53 | 1003.8 |
| 20260509011606 | 51 | 140 | 6.0 | 11.0 | 0.00 | 0.00 | 0.00 | 51 | 1003.9 |
| 20260509004605 | 52 | 113 | 5.0 | 12.0 | 0.00 | 0.00 | 0.00 | 50 | 1003.3 |
| 20260509003110 | 53 | 134 | 7.0 | 16.0 | 0.00 | 0.00 | 0.00 | 49 | 1003.3 |
| 20260509001552 | 54 | 134 | 5.0 | 14.0 | 0.00 | 0.00 | 0.00 | 47 | 1003.3 |
| 20260509000044 | 56 | 159 | 6.0 | 12.0 | 0.00 | 0.00 | 0.00 | 45 | 1003.3 |
| 20260508234550 | 56 | 105 | 6.0 | 12.0 | 0.00 | 0.00 | 0.00 | 45 | 1003.0 |
| 20260508233104 | 56 | 152 | 6.0 | 12.0 | 0.00 | 0.00 | 0.00 | 45 | 1003.1 |
| 20260508231603 | 57 | 145 | 8.0 | 15.0 | 0.00 | 0.00 | 0.00 | 43 | 1003.0 |
| 20260508230117 | 58 | 101 | 7.0 | 13.0 | 0.00 | 0.00 | 0.00 | 42 | 1003.2 |
| 20260508224621 | 59 | 184 | 4.0 | 11.0 | 0.00 | 0.00 | 0.00 | 39 | 1003.1 |
| 20260508223012 | 60 | 217 | 4.0 | 12.0 | 0.00 | 0.00 | 0.00 | 37 | 1003.4 |
| 20260508221513 | 61 | 156 | 4.0 | 9.0 | 0.00 | 0.00 | 0.00 | 36 | 1003.5 |
| 20260508220027 | 61 | 170 | 5.0 | 10.0 | 0.00 | 0.00 | 0.00 | 36 | 1003.6 |
| 20260508214523 | 61 | 138 | 3.0 | 9.0 | 0.00 | 0.00 | 0.00 | 34 | 1003.7 |
| 20260508213028 | 61 | 217 | 2.0 | 7.0 | 0.00 | 0.00 | 0.00 | 39 | 1004.0 |
| 20260508211550 | 62 | 266 | 1.0 | 7.0 | 0.00 | 0.00 | 0.00 | 36 | 1004.2 |
| 20260508210042 | 62 | 157 | 3.0 | 8.0 | 0.00 | 0.00 | 0.00 | 36 | 1004.1 |
| 20260508204527 | 61 | 281 | 3.0 | 8.0 | 0.00 | 0.00 | 0.00 | 37 | 1004.4 |
| 20260508203032 | 61 | 276 | 2.0 | 9.0 | 0.00 | 0.00 | 0.00 | 31 | 1004.8 |
| 20260508201505 | 60 | 280 | 2.0 | 8.0 | 0.00 | 0.00 | 0.00 | 30 | 1004.9 |
| 20260508200025 | 60 | 244 | 4.0 | 9.0 | 0.00 | 0.00 | 0.00 | 28 | 1005.2 |
| 20260508194617 | 57 | 67 | 1.0 | 3.0 | 0.00 | 0.00 | 0.00 | 32 | 1005.2 |
| 20260508193122 | 57 | 146 | 2.0 | 7.0 | 0.00 | 0.00 | 0.00 | 30 | 1005.6 |
| 20260508191618 | 58 | 134 | 3.0 | 11.0 | 0.00 | 0.00 | 0.00 | 29 | 1005.7 |
| 20260508190011 | 57 | 234 | 2.0 | 12.0 | 0.00 | 0.00 | 0.00 | 41 | 1005.8 |
| 20260508184625 | 58 | 319 | 4.0 | 12.0 | 0.00 | 0.00 | 0.00 | 31 | 1005.9 |
| 20260508183016 | 58 | 311 | 7.0 | 16.0 | 0.00 | 0.00 | 0.00 | 25 | 1006.0 |
| 20260508181515 | 57 | 309 | 5.0 | 12.0 | 0.00 | 0.00 | 0.00 | 27 | 1006.4 |
| 20260508180040 | 56 | 282 | 3.0 | 11.0 | 0.00 | 0.00 | 0.00 | 29 | 1006.8 |
| 20260508174521 | 55 | 290 | 2.0 | 7.0 | 0.00 | 0.00 | 0.00 | 30 | 1006.8 |
| 20260508173041 | 55 | 297 | 4.0 | 12.0 | 0.00 | 0.00 | 0.00 | 30 | 1006.9 |
| 20260508171619 | 54 | 258 | 1.0 | 7.0 | 0.00 | 0.00 | 0.00 | 34 | 1007.0 |
| 20260508170109 | 54 | 292 | 4.0 | 8.0 | 0.00 | 0.00 | 0.00 | 32 | 1007.2 |
| 20260508164616 | 53 | 281 | 3.0 | 9.0 | 0.00 | 0.01 | 0.00 | 35 | 1007.5 |
| 20260508163124 | 52 | 298 | 5.0 | 10.0 | 0.00 | 0.01 | 0.00 | 35 | 1007.6 |
| 20260508161604 | 51 | 238 | 3.0 | 8.0 | 0.00 | 0.01 | 0.00 | 40 | 1007.6 |
| 20260508160104 | 49 | 249 | 1.0 | 8.0 | 0.00 | 0.01 | 0.00 | 42 | 1007.9 |
| 20260508154607 | 49 | 275 | 2.0 | 8.0 | 0.00 | 0.02 | 0.00 | 43 | 1007.9 |
| 20260508153110 | 49 | 80 | 1.0 | 8.0 | 0.00 | 0.02 | 0.00 | 43 | 1007.8 |
| 20260508151618 | 48 | 296 | 3.0 | 9.0 | 0.00 | 0.02 | 0.00 | 43 | 1007.9 |
| 20260508150106 | 47 | 295 | 4.0 | 9.0 | 0.00 | 0.02 | 0.00 | 46 | 1007.9 |
| 20260508144608 | 46 | 260 | 3.0 | 9.0 | 0.00 | 0.02 | 0.00 | 47 | 1008.0 |
| 20260508143121 | 45 | 342 | 3.0 | 6.0 | 0.00 | 0.02 | 0.00 | 48 | 1008.0 |
| 20260508141510 | 44 | 335 | 2.0 | 9.0 | 0.00 | 0.02 | 0.00 | 51 | 1008.1 |
| 20260508140124 | 44 | 252 | 1.0 | 3.0 | 0.00 | 0.02 | 0.00 | 55 | 1008.1 |
| 20260508134622 | 44 | 305 | 2.0 | 5.0 | 0.00 | 0.02 | 0.00 | 54 | 1008.0 |
| 20260508133017 | 43 | 348 | 1.0 | 4.0 | 0.00 | 0.02 | 0.00 | 57 | 1008.1 |
| 20260508131544 | 41 | 61 | 0.0 | 0.0 | 0.00 | 0.02 | 0.00 | 61 | 1008.2 |
| 20260508130106 | 39 | 86 | 0.0 | 0.0 | 0.00 | 0.02 | 0.00 | 66 | 1008.3 |
| 20260508124625 | 37 | 86 | 0.0 | 0.0 | 0.00 | 0.02 | 0.00 | 70 | 1008.2 |
| 20260508123109 | 37 | 86 | 0.0 | 1.0 | 0.00 | 0.02 | 0.00 | 69 | 1008.2 |
| 20260508121550 | 37 | 74 | 0.0 | 0.0 | 0.00 | 0.02 | 0.00 | 69 | 1008.0 |
| 20260508120013 | 37 | 66 | 0.0 | 0.0 | 0.00 | 0.02 | 0.00 | 71 | 1008.0 |
| 20260508114623 | 37 | 56 | 0.0 | 0.0 | 0.00 | 0.02 | 0.00 | 70 | 1007.9 |
| 20260508113128 | 37 | 56 | 0.0 | 0.0 | 0.00 | 0.02 | 0.00 | 71 | 1007.9 |
| 20260508111632 | 37 | 56 | 0.0 | 0.0 | 0.00 | 0.02 | 0.00 | 71 | 1007.9 |
| 20260508110026 | 38 | 25 | 0.0 | 0.0 | 0.00 | 0.02 | 0.00 | 69 | 1007.9 |
| 20260508104622 | 38 | 25 | 0.0 | 0.0 | 0.00 | 0.02 | 0.00 | 69 | 1007.9 |
| 20260508103035 | 38 | 25 | 0.0 | 0.0 | 0.00 | 0.02 | 0.00 | 70 | 1008.0 |
| 20260508101610 | 38 | 21 | 0.0 | 0.0 | 0.00 | 0.02 | 0.00 | 69 | 1008.2 |
| 20260508100131 | 38 | 21 | 0.0 | 0.0 | 0.00 | 0.02 | 0.00 | 69 | 1008.4 |
| 20260508094524 | 39 | 21 | 0.0 | 0.0 | 0.00 | 0.02 | 0.00 | 68 | 1008.4 |
| 20260508093056 | 40 | 328 | 0.0 | 0.0 | 0.00 | 0.02 | 0.00 | 67 | 1008.5 |
| 20260508091616 | 40 | 340 | 0.0 | 0.0 | 0.00 | 0.02 | 0.00 | 65 | 1008.8 |
| 20260508090056 | 41 | 340 | 0.0 | 0.0 | 0.00 | 0.02 | 0.00 | 64 | 1009.0 |
| 20260508084540 | 40 | 330 | 0.0 | 1.0 | 0.00 | 0.02 | 0.00 | 65 | 1009.1 |
| 20260508083028 | 40 | 330 | 1.0 | 3.0 | 0.00 | 0.02 | 0.00 | 63 | 1009.2 |
| 20260508081520 | 40 | 261 | 0.0 | 0.0 | 0.00 | 0.02 | 0.00 | 62 | 1009.6 |
| 20260508080040 | 40 | 261 | 1.0 | 3.0 | 0.00 | 0.02 | 0.00 | 62 | 1009.6 |